カタログに戻る

STARLINK-5678

運用中通信VLEO
NORAD 55460·PAYLOAD·🇺🇸 United States

打ち上げ Feb 2, 2023 から Cape Canaveral Space Force Station

Loading…

次のパス (今後24時間)

TLE

最新Source: CelesTrak SupGP

元期: Sep 14, 2026, 20:49 UTC

1 55460C 23015M   26257.86784722 -.00039921  00000+0 -14459-2 0  2574
2 55460  43.0030 340.4551 0001452 267.4099  73.6130 15.27599194    16

AllMySatでSTARLINK-5678をリアルタイム追跡

Download on the App Store